Home   Weather   Pasadena   Past weeks

Flag for USA Past Weather in Pasadena, California, USA — Yesterday and Last 2 Weeks

Now
55 °F

Low clouds.


Feels Like: 55 °F
Forecast: 46 / 60 °F
Wind: 3 mph from Southeast

Location: Bob Hope Airport

Current Time: Dec 6, 2016 at 2:08:13 am

Latest Report: Dec 6, 2016 at 12:53 am


Visibility: 8 mi

Pressure: 29.94 "Hg

Humidity: 83%

Dew Point: 50 °F

Location of PasadenaLocation

Past Weather in Pasadena — Graph

°F

Pasadena Temperature Yesterday

Maximum temperature yesterday: 65 °F (at 1:53 pm)
Minimum temperature yesterday: 43 °F (at 5:53 am)
Average temperature yesterday: 54 °F

High & Low Weather Summary for the Past Weeks

 TemperatureHumidityPressure
High76 °F (Nov 25, 1:53 pm)96% (Nov 21, 1:03 am)30.16 "Hg (Nov 21, 1:03 am)
Low40 °F (Nov 26, 6:53 am)7% (Dec 3, 2:53 am)29.79 "Hg (Nov 28, 3:53 pm)
Average56 °F47%29.99 "Hg
* Reported Nov 21 1:03 am — Dec 6 12:53 am, Pasadena, Weather by CustomWeather, © 2016

Note: Actual official high and low records may vary slightly from our data, if they occured in-between our weather recording intervals... More about our weather records

Advertising

Pasadena Weather History for the Previous 24 Hours

Scroll right to see more
 ConditionsComfort  
Time TempWeatherWind HumidityBarometerVisibility
12:53 am
Tue, Dec 6
55 °FLow clouds.3 mph83%29.94 "Hg8 mi
12:03 am55 °FLow clouds.3 mph83%29.97 "Hg7 mi
11:53 pm
Mon, Dec 5
54 °FOvercast.3 mph83%29.95 "Hg7 mi
10:53 pm52 °FOvercast.3 mph83%29.95 "Hg7 mi
10:04 pm51 °FPassing clouds.No wind83%29.96 "Hg7 mi
9:53 pm51 °FPassing clouds.No wind80%29.94 "Hg8 mi
8:53 pm53 °FFog.No wind89%29.93 "Hg5 mi
7:53 pm55 °FFog.5 mph87%29.92 "Hg5 mi
6:53 pm55 °FFog.6 mph87%29.91 "Hg6 mi
5:53 pm57 °FClear.6 mph81%29.90 "Hg9 mi
4:53 pm60 °FClear.3 mph67%29.89 "Hg10 mi
3:53 pm64 °FSunny.5 mph41%29.88 "Hg10 mi
2:53 pm65 °FSunny.6 mph40%29.87 "Hg10 mi
1:53 pm65 °FSunny.3 mph36%29.88 "Hg10 mi
12:53 pm63 °FSunny.8 mph37%29.90 "Hg10 mi
11:53 am61 °FSunny.7 mph46%29.92 "Hg10 mi
10:53 am58 °FSunny.8 mph60%29.95 "Hg10 mi
9:53 am55 °FSunny.6 mph62%29.96 "Hg10 mi
8:53 am52 °FSunny.3 mph41%29.95 "Hg10 mi
7:53 am48 °FSunny.No wind50%29.94 "Hg10 mi
6:53 am45 °FSunny.No wind51%29.93 "Hg9 mi
5:53 am43 °FClear.3 mph60%29.93 "Hg10 mi
4:53 am45 °FClear.No wind51%29.91 "Hg10 mi
3:53 am45 °FClear.3 mph53%29.91 "Hg10 mi
2:53 am46 °FClear.No wind50%29.92 "Hg10 mi
Weather by CustomWeather, © 2016

See weather overviewHow to use our weather pages